Warroad, MN

4:51 PM CDT on July 28, 2016 (GMT -0500)
Warroad International-Carlson

Weather History for KRRT - October, 2013

Change the Weather History Date:

Thursday, October 24, 2013

  Actual Average Record
Temperature  
Mean Temperature 34 °F -  
Max Temperature 39 °F 49 °F 76 °F (1963)
Min Temperature 30 °F 32 °F 11 °F (1976)
Degree Days  
Heating Degree Days 30    
Moisture  
Dew Point 29 °F    
Average Humidity 79    
Maximum Humidity 93    
Minimum Humidity 65    
Precipitation  
Precipitation 0.00 in - - ()
Sea Level Pressure  
Sea Level Pressure 30.17 in    
Wind  
Wind Speed 7 mph (West)    
Max Wind Speed 13 mph    
Max Gust Speed 17 mph    
Visibility 10 miles    
Events Snow    
Averages and records for this station are not official NWS values.
T = Trace of Precipitation, MM = Missing Value Source: NWS Daily Summary

Daily Weather History Graph

Daily Weather History Graph

Search for Another Location

Airport or City:

Trip Planner

Search our weather history database for the weather conditions in past years. The results will help you decide how hot, cold, wet, or windy it might be!

Date:

Astronomy

Oct. 24, 2013 Rise Set
Actual Time 7:56 AM CDT 6:13 PM CDT
Civil Twilight 7:23 AM CDT 6:46 PM CDT
Nautical Twilight 6:46 AM CDT 7:23 PM CDT
Astronomical Twilight 6:10 AM CDT 7:59 PM CDT
Moon 10:28 PM CDT (10/24) 1:09 PM CDT (10/24)
Length of Visible Light 11h 22m
Length of Day
10h 17m
Waning Gibbous, 71% of the Moon is Illuminated
Oct 24
Waning Gibbous
Oct 26
Last Quarter
Nov 3
New
Nov 9
First Quarter
Nov 17
Full

Hourly Weather History & Observations

Time (CDT) Temp. Windchill Dew Point Humidity Pressure Visibility Wind Dir Wind Speed Gust Speed Precip Events Conditions
12:13 AM 32.0 °F 25.6 °F 28.4 °F 87% 30.08 in 10.0 mi West 6.9 mph - N/A   Overcast
12:34 AM 32.0 °F 25.6 °F 28.4 °F 87% 30.09 in 10.0 mi West 6.9 mph - N/A   Overcast
12:54 AM 32.0 °F 25.6 °F 28.4 °F 87% 30.09 in 10.0 mi West 6.9 mph - N/A   Overcast
1:13 AM 30.2 °F 23.4 °F 28.4 °F 93% 30.09 in 10.0 mi West 6.9 mph - N/A   Overcast
1:34 AM 30.2 °F 24.3 °F 28.4 °F 93% 30.09 in 7.0 mi West 5.8 mph - N/A Snow Light Snow
1:54 AM 32.0 °F 27.5 °F 28.4 °F 87% 30.10 in 3.0 mi West 4.6 mph - N/A Snow Light Snow
2:13 AM 32.0 °F 25.6 °F 28.4 °F 87% 30.09 in 3.0 mi West 6.9 mph - N/A Snow Light Snow
2:34 AM 32.0 °F 25.6 °F 28.4 °F 87% 30.09 in 5.0 mi West 6.9 mph - N/A Snow Light Snow
2:54 AM 32.0 °F 26.4 °F 28.4 °F 87% 30.10 in 10.0 mi West 5.8 mph - N/A   Overcast
3:13 AM 32.0 °F 26.4 °F 28.4 °F 87% 30.10 in 10.0 mi West 5.8 mph - N/A   Overcast
3:34 AM 33.8 °F 28.6 °F 28.4 °F 81% 30.10 in 10.0 mi West 5.8 mph - N/A   Overcast
3:54 AM 33.8 °F 29.6 °F 28.4 °F 81% 30.10 in 10.0 mi West 4.6 mph - N/A   Overcast
4:14 AM 33.8 °F 27.7 °F 28.4 °F 81% 30.10 in 10.0 mi WNW 6.9 mph - N/A   Overcast
4:33 AM 33.8 °F 29.6 °F 30.2 °F 87% 30.11 in 10.0 mi West 4.6 mph - N/A   Overcast
4:54 AM 33.8 °F 27.0 °F 30.2 °F 87% 30.11 in 10.0 mi NW 8.1 mph - N/A   Overcast
5:14 AM 33.8 °F 28.6 °F 30.2 °F 87% 30.11 in 10.0 mi WNW 5.8 mph - N/A   Overcast
5:34 AM 33.8 °F 25.8 °F 30.2 °F 87% 30.12 in 10.0 mi WNW 10.4 mph - N/A   Overcast
5:54 AM 33.8 °F 27.7 °F 30.2 °F 87% 30.12 in 10.0 mi West 6.9 mph - N/A   Overcast
6:14 AM 33.8 °F 26.4 °F 30.2 °F 87% 30.13 in 10.0 mi NW 9.2 mph 17.3 mph N/A   Overcast
6:34 AM 33.8 °F 25.8 °F 30.2 °F 87% 30.13 in 10.0 mi WNW 10.4 mph 16.1 mph N/A   Overcast
6:54 AM 33.8 °F 27.0 °F 30.2 °F 87% 30.14 in 10.0 mi WNW 8.1 mph - N/A   Overcast
7:14 AM 33.8 °F 24.8 °F 30.2 °F 87% 30.14 in 10.0 mi WNW 12.7 mph - N/A   Overcast
7:34 AM 33.8 °F 26.4 °F 30.2 °F 87% 30.14 in 10.0 mi West 9.2 mph - N/A   Overcast
7:54 AM 33.8 °F 25.8 °F 30.2 °F 87% 30.15 in 10.0 mi West 10.4 mph - N/A   Overcast
8:14 AM 33.8 °F 25.8 °F 30.2 °F 87% 30.15 in 10.0 mi NW 10.4 mph - N/A   Overcast
8:34 AM 33.8 °F 27.7 °F 30.2 °F 87% 30.15 in 10.0 mi NW 6.9 mph - N/A   Overcast
8:54 AM 33.8 °F 27.7 °F 28.4 °F 81% 30.15 in 4.0 mi WSW 6.9 mph - N/A Snow Light Snow
9:14 AM 33.8 °F 30.8 °F 28.4 °F 81% 30.16 in 10.0 mi West 3.5 mph - N/A   Overcast
9:34 AM 33.8 °F 29.6 °F 28.4 °F 81% 30.16 in 10.0 mi WSW 4.6 mph - N/A   Overcast
9:54 AM 33.8 °F 27.0 °F 30.2 °F 87% 30.17 in 10.0 mi WSW 8.1 mph - N/A   Overcast
10:14 AM 33.8 °F 27.7 °F 30.2 °F 87% 30.17 in 4.0 mi WNW 6.9 mph - N/A Snow Light Snow
10:34 AM 33.8 °F 26.4 °F 30.2 °F 87% 30.18 in 10.0 mi West 9.2 mph - N/A   Overcast
10:54 AM 35.6 °F 28.0 °F 30.2 °F 81% 30.18 in 10.0 mi WNW 10.4 mph - N/A   Overcast
11:14 AM 35.6 °F 27.5 °F 32.0 °F 87% 30.18 in 10.0 mi WNW 11.5 mph - N/A   Overcast
11:34 AM 35.6 °F 28.0 °F 30.2 °F 81% 30.19 in 10.0 mi WNW 10.4 mph - N/A   Overcast
11:54 AM 37.4 °F 29.8 °F 30.2 °F 75% 30.19 in 10.0 mi West 11.5 mph 17.3 mph N/A   Overcast
12:14 PM 37.4 °F 29.8 °F 30.2 °F 75% 30.19 in 10.0 mi West 11.5 mph - N/A   Overcast
12:34 PM 37.4 °F 30.3 °F 30.2 °F 75% 30.19 in 10.0 mi NW 10.4 mph - N/A   Overcast
12:54 PM 37.4 °F 30.8 °F 30.2 °F 75% 30.19 in 10.0 mi NW 9.2 mph - N/A   Overcast
1:14 PM 37.4 °F 29.8 °F 30.2 °F 75% 30.19 in 10.0 mi WNW 11.5 mph 17.3 mph N/A   Overcast
1:34 PM 37.4 °F 30.8 °F 30.2 °F 75% 30.19 in 10.0 mi NW 9.2 mph - N/A   Overcast
1:54 PM 37.4 °F 30.3 °F 30.2 °F 75% 30.19 in 10.0 mi NW 10.4 mph - N/A   Overcast
2:14 PM 39.2 °F 33.0 °F 30.2 °F 70% 30.19 in 10.0 mi NW 9.2 mph - N/A   Overcast
2:33 PM 37.4 °F 32.1 °F 28.4 °F 70% 30.20 in 10.0 mi WNW 6.9 mph - N/A   Overcast
2:54 PM 39.2 °F 33.0 °F 28.4 °F 65% 30.20 in 10.0 mi WNW 9.2 mph - N/A   Overcast
3:14 PM 39.2 °F 32.0 °F 28.4 °F 65% 30.20 in 10.0 mi NW 11.5 mph - N/A   Overcast
3:34 PM 39.2 °F 33.0 °F 28.4 °F 65% 30.20 in 10.0 mi NW 9.2 mph - N/A   Overcast
3:54 PM 39.2 °F 33.6 °F 30.2 °F 70% 30.20 in 10.0 mi NW 8.1 mph - N/A   Overcast
4:14 PM 39.2 °F 34.2 °F 30.2 °F 70% 30.20 in 10.0 mi NW 6.9 mph - N/A   Mostly Cloudy
4:33 PM 39.2 °F 34.2 °F 30.2 °F 70% 30.21 in 10.0 mi WNW 6.9 mph 16.1 mph N/A   Mostly Cloudy
4:54 PM 39.2 °F 33.6 °F 30.2 °F 70% 30.20 in 10.0 mi WNW 8.1 mph - N/A   Overcast
5:11 PM 39.2 °F 34.2 °F 30.2 °F 70% 30.20 in 10.0 mi West 6.9 mph - N/A   Overcast
5:34 PM 39.2 °F 35.0 °F 30.2 °F 70% 30.21 in 10.0 mi West 5.8 mph - N/A   Overcast
5:54 PM 39.2 °F 34.2 °F 30.2 °F 70% 30.20 in 10.0 mi West 6.9 mph - N/A   Overcast
6:14 PM 39.2 °F 35.9 °F 30.2 °F 70% 30.21 in 10.0 mi West 4.6 mph - N/A   Overcast
6:33 PM 39.2 °F 35.9 °F 30.2 °F 70% 30.21 in 10.0 mi SW 4.6 mph - N/A   Overcast
6:54 PM 37.4 °F 33.8 °F 30.2 °F 75% 30.21 in 10.0 mi WSW 4.6 mph - N/A   Overcast
7:14 PM 37.4 °F 32.8 °F 30.2 °F 75% 30.20 in 10.0 mi WSW 5.8 mph - N/A   Overcast
7:34 PM 37.4 °F 33.8 °F 30.2 °F 75% 30.20 in 10.0 mi West 4.6 mph - N/A   Overcast
7:54 PM 37.4 °F 32.8 °F 30.2 °F 75% 30.21 in 10.0 mi West 5.8 mph - N/A   Overcast
8:14 PM 37.4 °F 33.8 °F 28.4 °F 70% 30.21 in 10.0 mi West 4.6 mph - N/A   Overcast
8:34 PM 37.4 °F 32.1 °F 28.4 °F 70% 30.21 in 10.0 mi West 6.9 mph - N/A   Overcast
8:53 PM 37.4 °F 32.8 °F 28.4 °F 70% 30.21 in 10.0 mi West 5.8 mph - N/A   Overcast
9:14 PM 35.6 °F 31.7 °F 28.4 °F 75% 30.21 in 10.0 mi West 4.6 mph - N/A   Overcast
9:34 PM 35.6 °F 31.7 °F 28.4 °F 75% 30.22 in 10.0 mi West 4.6 mph - N/A   Overcast
9:54 PM 35.6 °F - 28.4 °F 75% 30.22 in 10.0 mi Calm Calm - N/A   Mostly Cloudy
10:14 PM 33.8 °F 30.8 °F 28.4 °F 81% 30.22 in 10.0 mi SW 3.5 mph - N/A   Mostly Cloudy
10:34 PM 33.8 °F 30.8 °F 26.6 °F 75% 30.22 in 10.0 mi WSW 3.5 mph - N/A   Scattered Clouds
10:53 PM 32.0 °F 26.4 °F 26.6 °F 80% 30.21 in 10.0 mi SW 5.8 mph - N/A   Clear
11:14 PM 32.0 °F 26.4 °F 26.6 °F 80% 30.20 in 10.0 mi SW 5.8 mph - N/A   Clear
11:34 PM 32.0 °F 26.4 °F 26.6 °F 80% 30.20 in 10.0 mi SW 5.8 mph - N/A   Clear
11:53 PM 30.2 °F 24.3 °F 26.6 °F 86% 30.21 in 10.0 mi SW 5.8 mph - N/A   Clear